| time (UTC) | temp F | wind direction | speed MPH | gust MPH | rain 1hr in | rain 24hr in | rain mn in | humidity % | barometer mb |
| 20260504192017 | 63 | 72 | 1.0 | 2.0 | 0.12 | 0.13 | 0.13 | 90 | 1005.4 |
| 20260504191017 | 63 | 292 | 2.0 | 2.0 | 0.12 | 0.13 | 0.13 | 89 | 1006.5 |
| 20260504190018 | 63 | 267 | 2.0 | 3.0 | 0.11 | 0.12 | 0.12 | 88 | 1006.7 |
| 20260504185018 | 63 | 359 | 2.0 | 3.0 | 0.10 | 0.10 | 0.10 | 86 | 1006.3 |
| 20260504184018 | 65 | 39 | 2.0 | 3.0 | 0.10 | 0.10 | 0.10 | 84 | 1006.2 |
| 20260504183017 | 65 | 294 | 0.0 | 1.0 | 0.02 | 0.02 | 0.02 | 78 | 1007.0 |
| 20260504181018 | 65 | 296 | 1.0 | 2.0 | 0.00 | 0.00 | 0.00 | 76 | 1007.1 |
| 20260504180019 | 66 | 320 | 1.0 | 2.0 | 0.00 | 0.00 | 0.00 | 76 | 1006.9 |
| 20260504175018 | 66 | 310 | 1.0 | 2.0 | 0.00 | 0.00 | 0.00 | 73 | 1006.7 |
| 20260504174019 | 66 | 337 | 0.0 | 1.0 | 0.00 | 0.00 | 0.00 | 73 | 1006.6 |
| 20260504173018 | 67 | 313 | 0.0 | 1.0 | 0.00 | 0.00 | 0.00 | 71 | 1006.8 |
| 20260504172019 | 67 | 289 | 1.0 | 4.0 | 0.00 | 0.00 | 0.00 | 69 | 1006.6 |
| 20260504171019 | 67 | 292 | 0.0 | 2.0 | 0.00 | 0.00 | 0.00 | 68 | 1006.5 |
| 20260504151018 | 70 | 274 | 1.0 | 3.0 | 0.00 | 0.00 | 0.00 | 56 | 1008.3 |
| 20260504141018 | 69 | 275 | 2.0 | 4.0 | 0.00 | 0.00 | 0.00 | 60 | 1008.1 |
| 20260504081023 | 65 | 290 | 1.0 | 2.0 | 0.00 | 0.00 | 0.00 | 63 | 1008.9 |
| 20260504050019 | 67 | 320 | 1.0 | 2.0 | 0.00 | 0.00 | 0.00 | 55 | 1008.5 |
| 20260504045057 | 67 | 291 | 1.0 | 3.0 | 0.00 | 0.00 | 0.00 | 55 | 1008.5 |
| 20260504044026 | 67 | 301 | 1.0 | 2.0 | 0.00 | 0.00 | 0.00 | 54 | 1008.7 |
| 20260504043023 | 68 | 298 | 1.0 | 3.0 | 0.00 | 0.00 | 0.00 | 53 | 1009.1 |
| 20260504042025 | 68 | 284 | 1.0 | 5.0 | 0.00 | 0.00 | 0.00 | 53 | 1009.4 |
| 20260504041017 | 68 | 274 | 1.0 | 5.0 | 0.00 | 0.00 | 0.00 | 54 | 1009.0 |
| 20260504040017 | 68 | 279 | 1.0 | 2.0 | 0.00 | 0.00 | 0.00 | 53 | 1009.9 |
| 20260504035017 | 67 | 285 | 1.0 | 5.0 | 0.00 | 0.00 | 0.00 | 53 | 1009.9 |
| 20260504034020 | 67 | 302 | 0.0 | 2.0 | 0.00 | 0.00 | 0.00 | 52 | 1010.1 |
| 20260504033100 | 68 | 289 | 0.0 | 2.0 | 0.00 | 0.00 | 0.00 | 52 | 1010.1 |
| 20260504032100 | 68 | 293 | 0.0 | 1.0 | 0.00 | 0.00 | 0.00 | 51 | 1010.2 |
| 20260504031018 | 69 | 273 | 1.0 | 3.0 | 0.00 | 0.00 | 0.00 | 50 | 1010.0 |
| 20260504030018 | 69 | 276 | 2.0 | 4.0 | 0.00 | 0.00 | 0.00 | 49 | 1009.9 |
| 20260504025021 | 69 | 275 | 1.0 | 2.0 | 0.00 | 0.00 | 0.00 | 49 | 1009.8 |
| 20260504024018 | 69 | 276 | 1.0 | 3.0 | 0.00 | 0.00 | 0.00 | 48 | 1009.8 |
| 20260504023018 | 70 | 270 | 2.0 | 5.0 | 0.00 | 0.00 | 0.00 | 48 | 1009.7 |
| 20260504022021 | 70 | 276 | 1.0 | 3.0 | 0.00 | 0.00 | 0.00 | 47 | 1009.6 |
| 20260504021021 | 70 | 275 | 1.0 | 2.0 | 0.00 | 0.00 | 0.00 | 47 | 1009.6 |
| 20260504020059 | 71 | 279 | 1.0 | 3.0 | 0.00 | 0.00 | 0.00 | 47 | 1009.6 |
| 20260504015018 | 71 | 274 | 1.0 | 3.0 | 0.00 | 0.00 | 0.00 | 46 | 1009.4 |
| 20260504014019 | 71 | 272 | 1.0 | 3.0 | 0.00 | 0.00 | 0.00 | 46 | 1009.4 |
| 20260504013019 | 72 | 278 | 1.0 | 3.0 | 0.00 | 0.00 | 0.00 | 45 | 1009.3 |
| 20260504012019 | 73 | 272 | 1.0 | 2.0 | 0.00 | 0.00 | 0.00 | 44 | 1009.2 |
| 20260504011019 | 73 | 278 | 1.0 | 2.0 | 0.00 | 0.00 | 0.00 | 43 | 1009.2 |
| 20260504010019 | 74 | 275 | 2.0 | 3.0 | 0.00 | 0.00 | 0.00 | 42 | 1009.2 |
| 20260504005016 | 74 | 272 | 2.0 | 4.0 | 0.00 | 0.00 | 0.00 | 41 | 1009.1 |
| 20260504004019 | 75 | 265 | 2.0 | 5.0 | 0.00 | 0.00 | 0.00 | 40 | 1009.2 |
| 20260504003019 | 76 | 264 | 2.0 | 4.0 | 0.00 | 0.00 | 0.00 | 40 | 1009.2 |
| 20260504002020 | 77 | 261 | 2.0 | 4.0 | 0.00 | 0.00 | 0.00 | 39 | 1009.2 |
| 20260504001020 | 77 | 264 | 2.0 | 4.0 | 0.00 | 0.00 | 0.00 | 38 | 1009.2 |
| 20260504000017 | 77 | 266 | 3.0 | 5.0 | 0.00 | 0.00 | 0.00 | 37 | 1009.2 |
| 20260503235021 | 77 | 261 | 3.0 | 4.0 | 0.00 | 0.00 | 0.00 | 37 | 1009.3 |
| 20260503234020 | 78 | 264 | 3.0 | 5.0 | 0.00 | 0.00 | 0.00 | 36 | 1009.4 |
| 20260503233017 | 78 | 265 | 3.0 | 6.0 | 0.00 | 0.00 | 0.00 | 35 | 1009.4 |
| 20260503232017 | 79 | 264 | 3.0 | 5.0 | 0.00 | 0.00 | 0.00 | 34 | 1009.4 |
| 20260503231018 | 81 | 264 | 3.0 | 6.0 | 0.00 | 0.00 | 0.00 | 33 | 1009.4 |
| 20260503225017 | 82 | 270 | 3.0 | 6.0 | 0.00 | 0.00 | 0.00 | 31 | 1009.7 |
| 20260503224058 | 82 | 274 | 3.0 | 6.0 | 0.00 | 0.00 | 0.00 | 31 | 1009.6 |
| 20260503223018 | 82 | 275 | 3.0 | 4.0 | 0.00 | 0.00 | 0.00 | 31 | 1009.7 |
| 20260503222018 | 82 | 270 | 2.0 | 5.0 | 0.00 | 0.00 | 0.00 | 33 | 1009.8 |
| 20260503221018 | 82 | 265 | 3.0 | 5.0 | 0.00 | 0.00 | 0.00 | 32 | 1009.9 |
| 20260503220019 | 82 | 264 | 3.0 | 7.0 | 0.00 | 0.00 | 0.00 | 32 | 1009.9 |
| 20260503215058 | 82 | 274 | 3.0 | 5.0 | 0.00 | 0.00 | 0.00 | 33 | 1010.0 |
| 20260503214019 | 81 | 267 | 3.0 | 6.0 | 0.00 | 0.00 | 0.00 | 33 | 1010.0 |
| 20260503213019 | 81 | 269 | 3.0 | 9.0 | 0.00 | 0.00 | 0.00 | 33 | 1010.0 |
| 20260503212019 | 81 | 272 | 3.0 | 5.0 | 0.00 | 0.00 | 0.00 | 34 | 1010.2 |
| 20260503211059 | 80 | 272 | 3.0 | 7.0 | 0.00 | 0.00 | 0.00 | 34 | 1010.4 |
| 20260503210019 | 79 | 272 | 3.0 | 8.0 | 0.00 | 0.00 | 0.00 | 36 | 1010.5 |
| 20260503205019 | 78 | 271 | 3.0 | 7.0 | 0.00 | 0.00 | 0.00 | 36 | 1010.7 |
| 20260503204140 | 77 | 262 | 3.0 | 6.0 | 0.00 | 0.00 | 0.00 | 35 | 1010.9 |
| 20260503203016 | 77 | 276 | 3.0 | 8.0 | 0.00 | 0.00 | 0.00 | 38 | 1011.2 |
| 20260503202016 | 76 | 253 | 2.0 | 8.0 | 0.00 | 0.00 | 0.00 | 37 | 1011.4 |
| 20260503201020 | 76 | 276 | 2.0 | 7.0 | 0.00 | 0.00 | 0.00 | 37 | 1011.7 |
| 20260503200020 | 75 | 248 | 2.0 | 6.0 | 0.00 | 0.00 | 0.00 | 37 | 1011.9 |
| 20260503195017 | 75 | 272 | 3.0 | 5.0 | 0.00 | 0.00 | 0.00 | 37 | 1012.1 |
| 20260503194017 | 74 | 270 | 2.0 | 6.0 | 0.00 | 0.00 | 0.00 | 37 | 1012.4 |
| 20260503193017 | 74 | 283 | 2.0 | 5.0 | 0.00 | 0.00 | 0.00 | 37 | 1012.8 |